Regional Weather Roundup
Issued by NWS

Home | Current Version | Previous Version | Text Only | Print | Product List | Glossary On
Versions: 1 2 3 4 5 6 7 8 9 10 11 12 13 14 15 16 17 18 19 20 21 22 23 24 25 26 27 28 29 30 31 32 33 34 35 36 37 38 39 40 41 42 43 44 45 46 47 48 49 50
000
ASPQ40 PGUM 271912
RWRPQ
WEATHER ROUNDUP FOR THE MARIANAS AND MICRONESIA
NATIONAL WEATHER SERVICE TIYAN GU
500 AM CHST FRI APR 28 2017

GUZ001>004-272000-
MARIANA ISLANDS-

CITY           SKY/WX    TMP DP  RH WIND       PRES   REMARKS
GUAM AIRPORT   PTCLDY    81  79  94 SE6       29.87R
ANDERSEN AFB   NOT AVBL
ROTA AIRPORT   NOT AVBL
TINIAN AP      NOT AVBL
SAIPAN AP      CLOUDY    81  75  83 SE8       29.86S

$$

PMZ161-272000-
REPUBLIC OF PALAU-

CITY           SKY/WX    TMP DP  RH WIND       PRES   REMARKS
KOROR AP       MOCLDY    81  77  89 SW3       29.79S
KOROR WSO      MOCLDY    82  79  89 S6        29.80  HX  93

$$

PMZ171>174-272000-
FEDERATED STATES OF MICRONESIA-

CITY           SKY/WX    TMP DP  RH WIND       PRES   REMARKS
YAP AIRPORT    NOT AVBL
CHUUK AP       MOCLDY    81  77  89 VRB5      29.83R
POHNPEI AP     MOCLDY    82  77  83 E6        29.84  HX  91
POHNPEI WSO    PTCLDY    82  73  74 E12       29.87R
KOSRAE AP      NOT AVBL

$$

PMZ181-272000-
REPUBLIC OF THE MARSHALL ISLANDS-

CITY           SKY/WX    TMP DP  RH WIND       PRES   REMARKS
KWAJALEIN AP   PTCLDY    82  72  69 E20       29.87R
MAJURO AP      NOT AVBL
MAJURO WSO     CLOUDY    82  75  78 E17       29.84R

$$




USA.gov is the U.S. government's official web portal to all federal, state and local government web resources and services.